This is the latest recevied weather packets stored in our database for station/object LY3FF-10. If no packets are shown the sender has not sent any weather packets the latest 10 day(s).
| Time | Temp. | Humidity | Pressure | Rain* | Wind** | Luminosity | Snow |
|---|---|---|---|---|---|---|---|
| 1787964890 | 15° C | 65% | 999.3 hPa | - | - | - | - |
| 1787964004 | 15° C | 65% | 999.6 hPa | - | - | - | - |
| 1787963260 | 15° C | 65% | 999.4 hPa | - | - | - | - |
| 1787962455 | 15° C | 65% | 999.4 hPa | - | - | - | - |
| 1787961622 | 15° C | 65% | 999.4 hPa | - | - | - | - |
| 1787960855 | 15° C | 65% | 999.4 hPa | - | - | - | - |
| 1787960120 | 15.56° C | 64% | 999.6 hPa | - | - | - | - |
| 1787959300 | 15° C | 64% | 1000 hPa | - | - | - | - |
| 1787958404 | 15° C | 64% | 1000.4 hPa | - | - | - | - |
| 1787957524 | 15° C | 64% | 1000.4 hPa | - | - | - | - |
| 1787956760 | 15.56° C | 64% | 1000.5 hPa | - | - | - | - |
| 1787955940 | 15° C | 64% | 1000.4 hPa | - | - | - | - |
| 1787955124 | 15° C | 64% | 1000.6 hPa | - | - | - | - |
| 1787954400 | 15° C | 63% | 1000.6 hPa | - | - | - | - |
| 1787953595 | 15.56° C | 63% | 1000.8 hPa | - | - | - | - |
| 1787952765 | 15.56° C | 63% | 1001 hPa | - | - | - | - |
| 1787951975 | 16.11° C | 63% | 1001.1 hPa | - | - | - | - |
| 1787951104 | 15.56° C | 63% | 1001.2 hPa | - | - | - | - |
| 1787950315 | 15.56° C | 63% | 1001.3 hPa | - | - | - | - |
| 1787949495 | 15.56° C | 63% | 1001.3 hPa | - | - | - | - |
| 1787948774 | 16.11° C | 63% | 1001.4 hPa | - | - | - | - |
| 1787948044 | 15.56° C | 62% | 1001.4 hPa | - | - | - | - |
| 1787947160 | 16.67° C | 62% | 1001.4 hPa | - | - | - | - |
| 1787946380 | 16.11° C | 62% | 1001.5 hPa | - | - | - | - |
| 1787945580 | 16.67° C | 61% | 1001.6 hPa | - | - | - | - |
* Rain since midnight (hover to see other rain measurements)
** Current wind speed in m/s (hover to see current wind gust speed)